Location: Bailleul
(50.3375°N, 2.8513°E)
Time: 16:26:40
(UTC+00:00)

Cosmos 482 Debris - Pass Details

Date: 19 April 2021
Orbit: 199 x 2135 km, 52.0° (Epoch: 07 May)

Event Time Altitude Azimuth Distance (km) Brightness Sun altitude
Rises 20:02:38 0° 260° (W) 2,240 8.2 -11.2°
Reaches altitude 10° 20:04:59 10° 264° (W) 1,177 6.8 -11.5°
Maximum altitude 20:07:25 65° 347° (NNW) 274 3.0 -11.8°
Enters shadow 20:08:36 20° 67° (ENE) 609 4.3 -12.0°
